^^
Saratoga-Weather Station Historical Data
Daily Summary for June 3, 2020 Units:  Metric    English   Both
Daily Weekly Monthly Yearly Custom
  High: Low: Average:
Temperature: 6.1 °C 2.1 °C 4.2 °C
Dew Point: 3.1 °C 0.6 °C 2.2 °C
Humidity: 94% 78% 87%
Wind Speed: 20.9km/h 0km/h 4.5km/h
Wind Gust: 29km/h - -
Wind- - West
Pressure: 1010.2 hPa 997.0 hPa -
Precipitation: 0.0 mm    
Historical Graphs
 
 
Tabular Data for June 3, 2020
Time Temperature Dew Point Pressure Wind Wind Speed Wind Gust Humidity Rainfall Rate (Hourly) solar
00:01 5.2 °C 2.9 °C 997.0 hPa WNW 20.9 km/h 20.9 km/h 85% 0.0 mm 0 W/m2
00:07 5.2 °C 2.7 °C 997.0 hPa WSW 14.3 km/h 22.5 km/h 84% 0.0 mm 0 W/m2
00:12 5.3 °C 2.8 °C 997.3 hPa WNW 14.3 km/h 24.1 km/h 84% 0.0 mm 0 W/m2
00:17 5.2 °C 2.7 °C 997.3 hPa West 14.3 km/h 29 km/h 84% 0.0 mm 0 W/m2
00:22 5.2 °C 2.7 °C 997.3 hPa West 6.4 km/h 24.1 km/h 84% 0.0 mm 0 W/m2
00:27 5.2 °C 2.9 °C 997.3 hPa West 11.1 km/h 16.1 km/h 85% 0.0 mm 0 W/m2
00:32 5.1 °C 3 °C 997.6 hPa SW 16.3 km/h 20.9 km/h 86% 0.0 mm 0 W/m2
00:37 5 °C 3 °C 997.6 hPa WNW 13 km/h 20.9 km/h 87% 0.0 mm 0 W/m2
00:42 4.9 °C 2.9 °C 998.0 hPa WSW 11.1 km/h 20.9 km/h 87% 0.0 mm 0 W/m2
00:47 4.9 °C 2.9 °C 998.0 hPa WNW 13 km/h 24.1 km/h 87% 0.0 mm 0 W/m2
00:52 4.9 °C 2.9 °C 998.3 hPa WSW 7.9 km/h 16.1 km/h 87% 0.0 mm 0 W/m2
00:57 4.8 °C 3 °C 998.3 hPa NW 14.3 km/h 20.9 km/h 88% 0.0 mm 0 W/m2
01:02 4.8 °C 3 °C 998.3 hPa WSW 16.3 km/h 22.5 km/h 88% 0.0 mm 0 W/m2
01:07 4.8 °C 3 °C 998.6 hPa West 4.7 km/h 11.3 km/h 88% 0.0 mm 0 W/m2
01:12 4.7 °C 3 °C 998.6 hPa WNW 9.7 km/h 12.9 km/h 89% 0.0 mm 0 W/m2
01:17 4.6 °C 2.9 °C 998.6 hPa WSW 11.1 km/h 16.1 km/h 89% 0.0 mm 0 W/m2
01:22 4.6 °C 3.1 °C 998.6 hPa WNW 6.4 km/h 12.9 km/h 90% 0.0 mm 0 W/m2
01:27 4.6 °C 3.1 °C 999.0 hPa West 11.1 km/h 22.5 km/h 90% 0.0 mm 0 W/m2
01:32 4.6 °C 3.1 °C 999.0 hPa WSW 9.7 km/h 20.9 km/h 90% 0.0 mm 0 W/m2
01:38 4.5 °C 3 °C 999.3 hPa West 4.7 km/h 12.9 km/h 90% 0.0 mm 0 W/m2
01:43 4.4 °C 2.9 °C 999.3 hPa West 9.7 km/h 20.9 km/h 90% 0.0 mm 0 W/m2
01:48 4.4 °C 3.1 °C 999.7 hPa NW 9.7 km/h 11.3 km/h 91% 0.0 mm 0 W/m2
01:53 4.4 °C 3.1 °C 999.7 hPa West 4.7 km/h 17.7 km/h 91% 0.0 mm 0 W/m2
01:58 4.3 °C 3 °C 999.7 hPa West 9.7 km/h 14.5 km/h 91% 0.0 mm 0 W/m2
02:03 4.3 °C 3 °C 999.7 hPa West 9.7 km/h 14.5 km/h 91% 0.0 mm 0 W/m2
02:08 4.4 °C 3.1 °C 1000.0 hPa West 6.4 km/h 11.3 km/h 91% 0.0 mm 0 W/m2
02:13 4.4 °C 2.9 °C 1000.0 hPa WSW 17.7 km/h 19.3 km/h 90% 0.0 mm 0 W/m2
02:18 4.4 °C 2.9 °C 1000.0 hPa WNW 13 km/h 16.1 km/h 90% 0.0 mm 0 W/m2
02:23 4.4 °C 2.9 °C 1000.0 hPa West 13 km/h 19.3 km/h 90% 0.0 mm 0 W/m2
02:28 4.4 °C 2.9 °C 1000.0 hPa WSW 6.4 km/h 12.9 km/h 90% 0.0 mm 0 W/m2
02:33 4.3 °C 2.8 °C 1000.0 hPa West 6.4 km/h 19.3 km/h 90% 0.0 mm 0 W/m2
02:38 4.3 °C 2.8 °C 1000.3 hPa West 11.1 km/h 11.3 km/h 90% 0.0 mm 0 W/m2
02:43 4.2 °C 2.7 °C 1000.3 hPa West 6.4 km/h 12.9 km/h 90% 0.0 mm 0 W/m2
02:48 4.2 °C 2.9 °C 1000.3 hPa WSW 6.4 km/h 14.5 km/h 91% 0.0 mm 0 W/m2
02:53 4.2 °C 2.9 °C 1000.3 hPa WSW 6.4 km/h 20.9 km/h 91% 0.0 mm 0 W/m2
02:58 4.3 °C 2.8 °C 1000.3 hPa WNW 20.9 km/h 20.9 km/h 90% 0.0 mm 0 W/m2
03:03 4.3 °C 2.8 °C 1000.7 hPa WNW 6.4 km/h 17.7 km/h 90% 0.0 mm 0 W/m2
03:08 4.4 °C 2.9 °C 1000.7 hPa WNW 4.7 km/h 12.9 km/h 90% 0.0 mm 0 W/m2
03:13 4.4 °C 2.9 °C 1001.0 hPa SW 9.7 km/h 11.3 km/h 90% 0.0 mm 0 W/m2
03:18 4.4 °C 2.9 °C 1001.0 hPa West 13 km/h 12.9 km/h 90% 0.0 mm 0 W/m2
03:23 4.3 °C 2.8 °C 1001.0 hPa West 9.7 km/h 17.7 km/h 90% 0.0 mm 0 W/m2
03:28 4.3 °C 2.8 °C 1001.0 hPa West 11.1 km/h 14.5 km/h 90% 0.0 mm 0 W/m2
03:33 4.3 °C 2.8 °C 1001.0 hPa West 3.2 km/h 12.9 km/h 90% 0.0 mm 0 W/m2
03:38 4.2 °C 2.7 °C 1001.4 hPa West 4.7 km/h 12.9 km/h 90% 0.0 mm 0 W/m2
03:43 4.2 °C 2.7 °C 1001.4 hPa West 9.7 km/h 9.7 km/h 90% 0.0 mm 0 W/m2
03:48 4.1 °C 2.6 °C 1001.4 hPa NW 6.4 km/h 16.1 km/h 90% 0.0 mm 0 W/m2
03:53 4.1 °C 2.5 °C 1001.4 hPa West 3.2 km/h 14.5 km/h 89% 0.0 mm 0 W/m2
03:58 4.2 °C 2.5 °C 1001.4 hPa WNW 7.9 km/h 11.3 km/h 89% 0.0 mm 0 W/m2
04:03 4.2 °C 2.5 °C 1001.7 hPa WNW 3.2 km/h 9.7 km/h 89% 0.0 mm 0 W/m2
04:08 4.2 °C 2.5 °C 1001.7 hPa WNW 6.4 km/h 16.1 km/h 89% 0.0 mm 0 W/m2
04:13 4.2 °C 2.5 °C 1001.7 hPa WSW 11.1 km/h 12.9 km/h 89% 0.0 mm 0 W/m2
04:18 4.2 °C 2.5 °C 1002.0 hPa West 3.2 km/h 12.9 km/h 89% 0.0 mm 0 W/m2
04:24 4.1 °C 2.5 °C 1002.0 hPa WSW 3.2 km/h 12.9 km/h 89% 0.0 mm 0 W/m2
04:29 4.1 °C 2.5 °C 1002.0 hPa West 3.2 km/h 12.9 km/h 89% 0.0 mm 0 W/m2
04:34 4.1 °C 2.5 °C 1002.0 hPa WSW 6.4 km/h 12.9 km/h 89% 0.0 mm 0 W/m2
04:39 4 °C 2.4 °C 1002.0 hPa West 6.4 km/h 16.1 km/h 89% 0.0 mm 0 W/m2
04:44 4 °C 2.4 °C 1002.0 hPa WSW 6.4 km/h 9.7 km/h 89% 0.0 mm 0 W/m2
04:49 3.9 °C 2.3 °C 1002.4 hPa WNW 3.2 km/h 9.7 km/h 89% 0.0 mm 0 W/m2
04:54 3.9 °C 2.3 °C 1002.4 hPa WNW 4.7 km/h 14.5 km/h 89% 0.0 mm 0 W/m2
04:59 3.8 °C 2.2 °C 1002.4 hPa West 6.4 km/h 12.9 km/h 89% 0.0 mm 0 W/m2
05:04 3.8 °C 2.2 °C 1002.4 hPa WSW 4.7 km/h 14.5 km/h 89% 0.0 mm 0 W/m2
05:09 3.8 °C 2.2 °C 1002.4 hPa NW 7.9 km/h 9.7 km/h 89% 0.0 mm 0 W/m2
05:14 3.7 °C 2.1 °C 1002.4 hPa WNW 6.4 km/h 8 km/h 89% 0.0 mm 0 W/m2
05:19 3.7 °C 2.1 °C 1002.7 hPa West 17.7 km/h 17.7 km/h 89% 0.0 mm 0 W/m2
05:24 3.6 °C 2 °C 1002.7 hPa WSW 4.7 km/h 12.9 km/h 89% 0.0 mm 0 W/m2
05:29 3.6 °C 2.1 °C 1002.7 hPa West 4.7 km/h 12.9 km/h 90% 0.0 mm 0 W/m2
05:34 3.6 °C 2.1 °C 1002.7 hPa West 1.4 km/h 9.7 km/h 90% 0.0 mm 0 W/m2
05:39 3.5 °C 2 °C 1002.7 hPa WNW 4.7 km/h 9.7 km/h 90% 0.0 mm 0 W/m2
05:44 3.5 °C 2 °C 1003.0 hPa WSW 7.9 km/h 16.1 km/h 90% 0.0 mm 0 W/m2
05:49 3.4 °C 1.8 °C 1003.0 hPa WSW 1.4 km/h 14.5 km/h 89% 0.0 mm 0 W/m2
05:54 3.4 °C 1.9 °C 1003.0 hPa West 4.7 km/h 16.1 km/h 90% 0.0 mm 0 W/m2
05:59 3.4 °C 1.9 °C 1003.0 hPa West 4.7 km/h 11.3 km/h 90% 0.0 mm 0 W/m2
06:04 3.4 °C 1.9 °C 1003.0 hPa WSW 6.4 km/h 16.1 km/h 90% 0.0 mm 0 W/m2
06:09 3.4 °C 1.9 °C 1003.0 hPa WSW 4.7 km/h 11.3 km/h 90% 0.0 mm 0 W/m2
06:14 3.4 °C 1.9 °C 1003.0 hPa West 6.4 km/h 14.5 km/h 90% 0.0 mm 0 W/m2
06:19 3.4 °C 1.9 °C 1003.0 hPa WNW 1.4 km/h 3.2 km/h 90% 0.0 mm 0 W/m2
06:24 3.4 °C 1.9 °C 1003.0 hPa WNW 6.4 km/h 11.3 km/h 90% 0.0 mm 0 W/m2
06:29 3.3 °C 1.8 °C 1003.4 hPa WSW 14.3 km/h 14.5 km/h 90% 0.0 mm 0 W/m2
06:34 3.3 °C 1.8 °C 1003.4 hPa West 3.2 km/h 14.5 km/h 90% 0.0 mm 0 W/m2
06:39 3.3 °C 1.8 °C 1003.4 hPa NW 6.4 km/h 12.9 km/h 90% 0.0 mm 0 W/m2
06:44 3.3 °C 1.8 °C 1003.7 hPa West 1.4 km/h 14.5 km/h 90% 0.0 mm 0 W/m2
06:49 3.3 °C 1.8 °C 1003.7 hPa Calm   4.8 km/h 90% 0.0 mm 0 W/m2
06:54 3.3 °C 1.8 °C 1003.7 hPa WSW 4.7 km/h 11.3 km/h 90% 0.0 mm 0 W/m2
06:59 3.3 °C 1.8 °C 1003.7 hPa WSW 3.2 km/h 6.4 km/h 90% 0.0 mm 0 W/m2
07:04 3.3 °C 1.8 °C 1003.7 hPa WNW 4.7 km/h 4.8 km/h 90% 0.0 mm 0 W/m2
07:09 3.2 °C 1.7 °C 1003.4 hPa Calm   1.6 km/h 90% 0.0 mm 0 W/m2
07:15 3.2 °C 1.7 °C 1003.7 hPa West 9.7 km/h 9.7 km/h 90% 0.0 mm 0 W/m2
07:20 3.2 °C 1.9 °C 1003.7 hPa Calm   1.6 km/h 91% 0.0 mm 0 W/m2
07:25 3.2 °C 1.9 °C 1003.7 hPa NW 3.2 km/h 3.2 km/h 91% 0.0 mm 0 W/m2
07:30 3.2 °C 1.9 °C 1003.7 hPa NW 1.4 km/h 4.8 km/h 91% 0.0 mm 5 W/m2
07:35 3.2 °C 1.9 °C 1003.7 hPa West 1.4 km/h 6.4 km/h 91% 0.0 mm 12 W/m2
07:40 3.2 °C 1.9 °C 1003.7 hPa NW 3.2 km/h 8 km/h 91% 0.0 mm 12 W/m2
07:45 3.2 °C 1.9 °C 1003.7 hPa SSW 3.2 km/h 3.2 km/h 91% 0.0 mm 14 W/m2
07:50 3.2 °C 1.9 °C 1003.7 hPa WNW 3.2 km/h 8 km/h 91% 0.0 mm 11 W/m2
07:55 3.2 °C 1.9 °C 1003.7 hPa West 6.4 km/h 9.7 km/h 91% 0.0 mm 16 W/m2
08:00 3.2 °C 1.9 °C 1003.7 hPa Calm   1.6 km/h 91% 0.0 mm 16 W/m2
08:05 3.2 °C 1.9 °C 1003.7 hPa West 9.7 km/h 11.3 km/h 91% 0.0 mm 16 W/m2
08:10 3.2 °C 1.9 °C 1003.7 hPa West 4.7 km/h 4.8 km/h 91% 0.0 mm 23 W/m2
08:15 3.2 °C 1.9 °C 1004.1 hPa NW 1.4 km/h 11.3 km/h 91% 0.0 mm 30 W/m2
08:20 3.2 °C 1.9 °C 1004.1 hPa NW 1.4 km/h 3.2 km/h 91% 0.0 mm 39 W/m2
08:26 3.2 °C 1.9 °C 1004.1 hPa Calm   9.7 km/h 91% 0.0 mm 25 W/m2
08:31 3.2 °C 1.9 °C 1004.1 hPa WNW 3.2 km/h 6.4 km/h 91% 0.0 mm 23 W/m2
08:36 3.2 °C 1.9 °C 1004.1 hPa Calm   8 km/h 91% 0.0 mm 32 W/m2
08:41 3.2 °C 1.9 °C 1004.1 hPa NW 4.7 km/h 6.4 km/h 91% 0.0 mm 14 W/m2
08:46 3.2 °C 1.9 °C 1004.1 hPa West 3.2 km/h 6.4 km/h 91% 0.0 mm 21 W/m2
08:51 3.1 °C 1.8 °C 1004.1 hPa WNW 1.4 km/h 4.8 km/h 91% 0.0 mm 35 W/m2
08:56 3.1 °C 1.8 °C 1004.1 hPa SW 1.4 km/h 4.8 km/h 91% 0.0 mm 25 W/m2
09:01 3.1 °C 1.9 °C 1004.1 hPa NW 4.7 km/h 4.8 km/h 92% 0.0 mm 28 W/m2
09:06 3.2 °C 2 °C 1003.7 hPa WNW 7.9 km/h 8 km/h 92% 0.0 mm 121 W/m2
09:11 3.2 °C 2 °C 1004.1 hPa NW 7.9 km/h 8 km/h 92% 0.0 mm 98 W/m2
09:16 3.3 °C 2 °C 1003.7 hPa WNW 3.2 km/h 3.2 km/h 91% 0.0 mm 114 W/m2
09:21 3.4 °C 2.1 °C 1003.7 hPa West 1.4 km/h 4.8 km/h 91% 0.0 mm 204 W/m2
09:26 3.6 °C 2.3 °C 1004.1 hPa West 13 km/h 12.9 km/h 91% 0.0 mm 118 W/m2
09:31 3.7 °C 2.4 °C 1004.1 hPa WNW 3.2 km/h 8 km/h 91% 0.0 mm 72 W/m2
09:37 3.7 °C 2.4 °C 1004.1 hPa North 1.4 km/h 14.5 km/h 91% 0.0 mm 72 W/m2
09:42 3.7 °C 2.2 °C 1004.1 hPa NNW 1.4 km/h 3.2 km/h 90% 0.0 mm 62 W/m2
09:47 3.7 °C 2.2 °C 1004.1 hPa NNW 3.2 km/h 14.5 km/h 90% 0.0 mm 58 W/m2
09:52 3.7 °C 2.2 °C 1003.7 hPa WNW 11.1 km/h 11.3 km/h 90% 0.0 mm 49 W/m2
09:57 3.7 °C 2.2 °C 1004.1 hPa WNW 14.3 km/h 14.5 km/h 90% 0.0 mm 58 W/m2
10:02 3.7 °C 2.2 °C 1004.1 hPa NNW 3.2 km/h 6.4 km/h 90% 0.0 mm 47 W/m2
10:07 3.7 °C 2.2 °C 1004.1 hPa WNW 4.7 km/h 6.4 km/h 90% 0.0 mm 86 W/m2
10:12 3.7 °C 2.2 °C 1003.7 hPa WNW 1.4 km/h 6.4 km/h 90% 0.0 mm 104 W/m2
10:17 3.8 °C 2.3 °C 1003.7 hPa West 4.7 km/h 16.1 km/h 90% 0.0 mm 134 W/m2
10:22 3.8 °C 2.2 °C 1003.7 hPa Calm   4.8 km/h 89% 0.0 mm 102 W/m2
10:27 3.8 °C 2.2 °C 1003.7 hPa ESE 4.7 km/h 4.8 km/h 89% 0.0 mm 113 W/m2
10:32 3.9 °C 2.3 °C 1003.7 hPa West 6.4 km/h 6.4 km/h 89% 0.0 mm 90 W/m2
10:37 3.9 °C 2.3 °C 1003.7 hPa West 3.2 km/h 9.7 km/h 89% 0.0 mm 142 W/m2
10:42 3.9 °C 2.3 °C 1004.1 hPa WNW 4.7 km/h 11.3 km/h 89% 0.0 mm 83 W/m2
10:47 4 °C 2.2 °C 1004.1 hPa NW 7.9 km/h 8 km/h 88% 0.0 mm 72 W/m2
10:52 4 °C 2.2 °C 1004.1 hPa SSW 1.4 km/h 9.7 km/h 88% 0.0 mm 83 W/m2
10:57 4 °C 2.2 °C 1004.1 hPa WNW 4.7 km/h 8 km/h 88% 0.0 mm 62 W/m2
11:02 4 °C 2.2 °C 1004.1 hPa NNW 1.4 km/h 9.7 km/h 88% 0.0 mm 65 W/m2
11:07 4 °C 2.4 °C 1004.1 hPa Calm   6.4 km/h 89% 0.0 mm 58 W/m2
11:13 3.9 °C 2.3 °C 1004.1 hPa NW 4.7 km/h 4.8 km/h 89% 0.0 mm 67 W/m2
11:18 3.9 °C 2.3 °C 1004.1 hPa Calm   6.4 km/h 89% 0.0 mm 86 W/m2
11:23 3.9 °C 2.3 °C 1004.1 hPa Calm   1.6 km/h 89% 0.0 mm 90 W/m2
11:28 4 °C 2.4 °C 1004.1 hPa Calm   3.2 km/h 89% 0.0 mm 102 W/m2
11:33 4 °C 2.4 °C 1004.1 hPa ESE 6.4 km/h 8 km/h 89% 0.0 mm 69 W/m2
11:38 4 °C 2.4 °C 1004.1 hPa NW 6.4 km/h 6.4 km/h 89% 0.0 mm 58 W/m2
11:43 3.9 °C 2.3 °C 1004.1 hPa NW 3.2 km/h 8 km/h 89% 0.0 mm 90 W/m2
11:48 3.9 °C 2.4 °C 1004.1 hPa Calm   6.4 km/h 90% 0.0 mm 128 W/m2
11:53 4 °C 2.5 °C 1004.1 hPa Calm   3.2 km/h 90% 0.0 mm 188 W/m2
11:58 4.2 °C 2.7 °C 1004.1 hPa West 4.7 km/h 4.8 km/h 90% 0.0 mm 200 W/m2
12:03 4.3 °C 2.8 °C 1004.1 hPa ESE 1.4 km/h 6.4 km/h 90% 0.0 mm 176 W/m2
12:08 4.4 °C 2.9 °C 1004.1 hPa WNW 1.4 km/h 3.2 km/h 90% 0.0 mm 151 W/m2
12:13 4.5 °C 2.8 °C 1004.1 hPa WNW 7.9 km/h 11.3 km/h 89% 0.0 mm 137 W/m2
12:18 4.5 °C 2.8 °C 1004.1 hPa WNW 4.7 km/h 6.4 km/h 89% 0.0 mm 153 W/m2
12:23 4.6 °C 2.8 °C 1004.1 hPa WNW 3.2 km/h 16.1 km/h 88% 0.0 mm 230 W/m2
12:28 4.6 °C 2.8 °C 1004.1 hPa WSW 3.2 km/h 9.7 km/h 88% 0.0 mm 158 W/m2
12:33 4.7 °C 2.7 °C 1004.1 hPa NW 6.4 km/h 12.9 km/h 87% 0.0 mm 218 W/m2
12:38 4.8 °C 2.8 °C 1004.1 hPa West 4.7 km/h 6.4 km/h 87% 0.0 mm 188 W/m2
12:43 4.9 °C 2.9 °C 1004.1 hPa NW 7.9 km/h 12.9 km/h 87% 0.0 mm 162 W/m2
12:48 5 °C 2.9 °C 1004.1 hPa WNW 4.7 km/h 9.7 km/h 86% 0.0 mm 207 W/m2
12:53 5.1 °C 3 °C 1004.1 hPa NNW 1.4 km/h 12.9 km/h 86% 0.0 mm 197 W/m2
12:58 5.2 °C 3.1 °C 1004.1 hPa Calm   11.3 km/h 86% 0.0 mm 216 W/m2
13:03 5.2 °C 2.9 °C 1004.1 hPa South 1.4 km/h 9.7 km/h 85% 0.0 mm 304 W/m2
13:08 5.3 °C 2.8 °C 1004.1 hPa NNW 1.4 km/h 4.8 km/h 84% 0.0 mm 253 W/m2
13:13 5.6 °C 3.1 °C 1003.7 hPa WNW 7.9 km/h 9.7 km/h 84% 0.0 mm 267 W/m2
13:18 5.7 °C 3 °C 1004.1 hPa West 1.4 km/h 12.9 km/h 83% 0.0 mm 230 W/m2
13:23 5.7 °C 2.9 °C 1003.7 hPa WNW 1.4 km/h 17.7 km/h 82% 0.0 mm 234 W/m2
13:28 5.7 °C 2.9 °C 1003.7 hPa WNW 6.4 km/h 14.5 km/h 82% 0.0 mm 218 W/m2
13:33 5.8 °C 2.8 °C 1003.7 hPa WNW 4.7 km/h 16.1 km/h 81% 0.0 mm 204 W/m2
13:38 5.8 °C 2.8 °C 1003.7 hPa WNW 6.4 km/h 6.4 km/h 81% 0.0 mm 186 W/m2
13:43 5.8 °C 2.8 °C 1003.7 hPa NW 3.2 km/h 16.1 km/h 81% 0.0 mm 202 W/m2
13:48 5.8 °C 3 °C 1003.7 hPa NNW 3.2 km/h 3.2 km/h 82% 0.0 mm 139 W/m2
13:53 5.9 °C 3.1 °C 1003.7 hPa West 14.3 km/h 14.5 km/h 82% 0.0 mm 91 W/m2
13:58 5.8 °C 2.8 °C 1003.7 hPa NNW 1.4 km/h 3.2 km/h 81% 0.0 mm 69 W/m2
14:03 5.8 °C 3 °C 1003.7 hPa West 3.2 km/h 4.8 km/h 82% 0.0 mm 90 W/m2
14:08 5.8 °C 3 °C 1003.7 hPa WNW 1.4 km/h 9.7 km/h 82% 0.0 mm 155 W/m2
14:13 5.7 °C 2.9 °C 1003.7 hPa WNW 1.4 km/h 3.2 km/h 82% 0.0 mm 167 W/m2
14:18 5.8 °C 3 °C 1003.7 hPa NNW 1.4 km/h 3.2 km/h 82% 0.0 mm 153 W/m2
14:23 5.9 °C 2.9 °C 1003.7 hPa South 3.2 km/h 6.4 km/h 81% 0.0 mm 216 W/m2
14:28 5.9 °C 2.7 °C 1003.7 hPa NNW 6.4 km/h 6.4 km/h 80% 0.0 mm 139 W/m2
14:33 6 °C 2.6 °C 1003.7 hPa NW 1.4 km/h 1.6 km/h 79% 0.0 mm 181 W/m2
14:38 6 °C 2.5 °C 1003.7 hPa West 6.4 km/h 9.7 km/h 78% 0.0 mm 121 W/m2
14:43 6.1 °C 2.6 °C 1003.7 hPa NW 4.7 km/h 11.3 km/h 78% 0.0 mm 121 W/m2
14:48 6.1 °C 2.6 °C 1004.1 hPa SSE 1.4 km/h 6.4 km/h 78% 0.0 mm 135 W/m2
14:53 6.1 °C 2.6 °C 1004.1 hPa West 3.2 km/h 4.8 km/h 78% 0.0 mm 141 W/m2
14:58 6.1 °C 2.6 °C 1004.1 hPa WNW 3.2 km/h 12.9 km/h 78% 0.0 mm 111 W/m2
15:03 6 °C 2.5 °C 1004.1 hPa WNW 3.2 km/h 9.7 km/h 78% 0.0 mm 86 W/m2
15:08 5.9 °C 2.4 °C 1004.4 hPa Calm   12.9 km/h 78% 0.0 mm 79 W/m2
15:13 5.9 °C 2.4 °C 1004.4 hPa NW 3.2 km/h 6.4 km/h 78% 0.0 mm 88 W/m2
15:18 5.8 °C 2.4 °C 1004.4 hPa NNW 6.4 km/h 11.3 km/h 79% 0.0 mm 79 W/m2
15:23 5.7 °C 2.2 °C 1004.4 hPa WSW 4.7 km/h 4.8 km/h 78% 0.0 mm 77 W/m2
15:28 5.7 °C 2.3 °C 1004.4 hPa West 4.7 km/h 8 km/h 79% 0.0 mm 79 W/m2
15:34 5.7 °C 2.3 °C 1004.4 hPa NW 7.9 km/h 9.7 km/h 79% 0.0 mm 88 W/m2
15:39 5.7 °C 2.3 °C 1004.4 hPa NW 3.2 km/h 16.1 km/h 79% 0.0 mm 86 W/m2
15:44 5.6 °C 2.2 °C 1004.7 hPa West 9.7 km/h 11.3 km/h 79% 0.0 mm 54 W/m2
15:49 5.5 °C 2.1 °C 1004.7 hPa West 4.7 km/h 12.9 km/h 79% 0.0 mm 69 W/m2
15:54 5.4 °C 2.1 °C 1004.7 hPa WNW 4.7 km/h 9.7 km/h 79% 0.0 mm 60 W/m2
15:59 5.3 °C 2 °C 1004.7 hPa West 11.1 km/h 11.3 km/h 79% 0.0 mm 56 W/m2
16:04 5.3 °C 1.8 °C 1004.7 hPa West 6.4 km/h 12.9 km/h 78% 0.0 mm 84 W/m2
16:09 5.3 °C 2 °C 1004.7 hPa West 3.2 km/h 8 km/h 79% 0.0 mm 91 W/m2
16:14 5.3 °C 2 °C 1004.7 hPa WNW 3.2 km/h 12.9 km/h 79% 0.0 mm 70 W/m2
16:19 5.3 °C 2.1 °C 1004.7 hPa WNW 4.7 km/h 6.4 km/h 80% 0.0 mm 74 W/m2
16:24 5.3 °C 2.1 °C 1004.7 hPa Calm   4.8 km/h 80% 0.0 mm 76 W/m2
16:30 5.3 °C 2.1 °C 1004.7 hPa WSW 7.9 km/h 12.9 km/h 80% 0.0 mm 65 W/m2
16:35 5.3 °C 2.1 °C 1004.7 hPa West 4.7 km/h 6.4 km/h 80% 0.0 mm 81 W/m2
16:40 5.4 °C 2.2 °C 1004.7 hPa West 9.7 km/h 9.7 km/h 80% 0.0 mm 69 W/m2
16:45 5.4 °C 2.2 °C 1004.7 hPa West 4.7 km/h 6.4 km/h 80% 0.0 mm 60 W/m2
16:50 5.4 °C 2.2 °C 1004.7 hPa WNW 6.4 km/h 6.4 km/h 80% 0.0 mm 62 W/m2
16:55 5.4 °C 2.1 °C 1004.7 hPa WNW 7.9 km/h 11.3 km/h 79% 0.0 mm 56 W/m2
17:00 5.4 °C 2.1 °C 1004.7 hPa West 1.4 km/h 6.4 km/h 79% 0.0 mm 81 W/m2
17:05 5.4 °C 2.2 °C 1005.1 hPa NW 1.4 km/h 3.2 km/h 80% 0.0 mm 91 W/m2
17:10 5.5 °C 2.3 °C 1005.1 hPa NW 4.7 km/h 6.4 km/h 80% 0.0 mm 76 W/m2
17:15 5.5 °C 2.1 °C 1005.1 hPa NW 1.4 km/h 4.8 km/h 79% 0.0 mm 72 W/m2
17:20 5.4 °C 2.1 °C 1005.1 hPa WSW 6.4 km/h 9.7 km/h 79% 0.0 mm 70 W/m2
17:25 5.4 °C 2.2 °C 1005.4 hPa NW 1.4 km/h 4.8 km/h 80% 0.0 mm 60 W/m2
17:30 5.4 °C 2.2 °C 1005.4 hPa WNW 1.4 km/h 6.4 km/h 80% 0.0 mm 35 W/m2
17:35 5.4 °C 2.1 °C 1005.4 hPa Calm   1.6 km/h 79% 0.0 mm 30 W/m2
17:40 5.3 °C 2.1 °C 1005.4 hPa Calm     80% 0.0 mm 26 W/m2
17:45 5.2 °C 2 °C 1005.8 hPa WNW 1.4 km/h 3.2 km/h 80% 0.0 mm 25 W/m2
17:50 5.1 °C 2.1 °C 1005.8 hPa WNW 1.4 km/h 4.8 km/h 81% 0.0 mm 21 W/m2
17:55 5.1 °C 1.9 °C 1005.8 hPa WNW 3.2 km/h 4.8 km/h 80% 0.0 mm 19 W/m2
18:00 4.9 °C 1.9 °C 1005.8 hPa Calm   3.2 km/h 81% 0.0 mm 19 W/m2
18:05 4.8 °C 1.8 °C 1006.1 hPa WNW 1.4 km/h 4.8 km/h 81% 0.0 mm 16 W/m2
18:10 4.7 °C 1.9 °C 1006.1 hPa WNW 3.2 km/h 3.2 km/h 82% 0.0 mm 12 W/m2
18:16 4.6 °C 1.8 °C 1006.4 hPa West 1.4 km/h 4.8 km/h 82% 0.0 mm 7 W/m2
18:21 4.4 °C 1.8 °C 1006.4 hPa Calm   3.2 km/h 83% 0.0 mm 5 W/m2
18:26 4.3 °C 1.7 °C 1006.4 hPa Calm   1.6 km/h 83% 0.0 mm 0 W/m2
18:31 4.2 °C 1.7 °C 1006.8 hPa Calm   1.6 km/h 84% 0.0 mm 0 W/m2
18:36 4.2 °C 1.7 °C 1006.8 hPa West 1.4 km/h 3.2 km/h 84% 0.0 mm 0 W/m2
18:41 4.1 °C 1.8 °C 1006.8 hPa Calm   3.2 km/h 85% 0.0 mm 0 W/m2
18:46 4.1 °C 1.8 °C 1006.8 hPa WNW 3.2 km/h 3.2 km/h 85% 0.0 mm 0 W/m2
18:51 4.1 °C 1.8 °C 1006.8 hPa WNW 1.4 km/h 3.2 km/h 85% 0.0 mm 0 W/m2
18:56 4.1 °C 1.8 °C 1007.1 hPa WNW 3.2 km/h 4.8 km/h 85% 0.0 mm 0 W/m2
19:01 4.1 °C 2 °C 1007.1 hPa WSW 3.2 km/h 6.4 km/h 86% 0.0 mm 0 W/m2
19:06 4.2 °C 2.1 °C 1007.5 hPa West 4.7 km/h 4.8 km/h 86% 0.0 mm 0 W/m2
19:11 4.3 °C 2 °C 1007.5 hPa West 1.4 km/h 3.2 km/h 85% 0.0 mm 0 W/m2
19:16 4.4 °C 2.1 °C 1007.5 hPa Calm   1.6 km/h 85% 0.0 mm 0 W/m2
19:21 4.4 °C 2.1 °C 1007.5 hPa West 1.4 km/h 4.8 km/h 85% 0.0 mm 0 W/m2
19:26 4.3 °C 2 °C 1007.5 hPa Calm   3.2 km/h 85% 0.0 mm 0 W/m2
19:31 4.2 °C 1.9 °C 1007.5 hPa West 1.4 km/h 4.8 km/h 85% 0.0 mm 0 W/m2
19:36 4.1 °C 1.8 °C 1007.5 hPa Calm     85% 0.0 mm 0 W/m2
19:42 3.9 °C 1.8 °C 1007.5 hPa Calm   1.6 km/h 86% 0.0 mm 0 W/m2
19:47 3.7 °C 1.6 °C 1007.5 hPa Calm     86% 0.0 mm 0 W/m2
19:52 3.5 °C 1.5 °C 1007.5 hPa Calm   3.2 km/h 87% 0.0 mm 0 W/m2
19:57 3.4 °C 1.4 °C 1007.8 hPa Calm   1.6 km/h 87% 0.0 mm 0 W/m2
20:02 3.2 °C 1.2 °C 1007.8 hPa West 1.4 km/h 3.2 km/h 87% 0.0 mm 0 W/m2
20:07 3.1 °C 1.3 °C 1007.8 hPa Calm     88% 0.0 mm 0 W/m2
20:12 3 °C 1.4 °C 1007.8 hPa West 3.2 km/h 4.8 km/h 89% 0.0 mm 0 W/m2
20:17 3.1 °C 1.5 °C 1008.1 hPa Calm   1.6 km/h 89% 0.0 mm 0 W/m2
20:22 3.1 °C 1.5 °C 1008.1 hPa Calm   4.8 km/h 89% 0.0 mm 0 W/m2
20:27 2.9 °C 1.3 °C 1008.1 hPa Calm     89% 0.0 mm 0 W/m2
20:32 2.8 °C 1.2 °C 1008.1 hPa Calm     89% 0.0 mm 0 W/m2
20:37 2.7 °C 1.1 °C 1008.1 hPa Calm     89% 0.0 mm 0 W/m2
20:42 2.5 °C 0.9 °C 1008.5 hPa Calm     89% 0.0 mm 0 W/m2
20:47 2.3 °C 0.8 °C 1008.5 hPa Calm     90% 0.0 mm 0 W/m2
20:52 2.2 °C 0.7 °C 1008.5 hPa Calm     90% 0.0 mm 0 W/m2
20:58 2.1 °C 0.6 °C 1008.5 hPa Calm     90% 0.0 mm 0 W/m2
21:03 2.1 °C 0.8 °C 1008.5 hPa Calm     91% 0.0 mm 0 W/m2
21:08 2.1 °C 0.8 °C 1008.5 hPa Calm     91% 0.0 mm 0 W/m2
21:13 2.1 °C 0.9 °C 1008.8 hPa Calm     92% 0.0 mm 0 W/m2
21:18 2.1 °C 0.9 °C 1008.8 hPa Calm     92% 0.0 mm 0 W/m2
21:23 2.1 °C 0.9 °C 1008.8 hPa Calm     92% 0.0 mm 0 W/m2
21:28 2.1 °C 0.9 °C 1008.8 hPa Calm     92% 0.0 mm 0 W/m2
21:33 2.1 °C 0.9 °C 1009.1 hPa Calm   3.2 km/h 92% 0.0 mm 0 W/m2
21:38 2.2 °C 1.2 °C 1009.1 hPa Calm   1.6 km/h 93% 0.0 mm 0 W/m2
21:43 2.4 °C 1.4 °C 1009.1 hPa West 1.4 km/h 1.6 km/h 93% 0.0 mm 0 W/m2
21:48 2.6 °C 1.7 °C 1009.1 hPa Calm   1.6 km/h 94% 0.0 mm 0 W/m2
21:53 2.7 °C 1.7 °C 1009.1 hPa Calm   1.6 km/h 93% 0.0 mm 0 W/m2
21:58 2.8 °C 1.8 °C 1009.1 hPa West 1.4 km/h 4.8 km/h 93% 0.0 mm 0 W/m2
22:03 2.9 °C 1.9 °C 1009.5 hPa Calm     93% 0.0 mm 0 W/m2
22:08 3 °C 1.8 °C 1009.5 hPa Calm   3.2 km/h 92% 0.0 mm 0 W/m2
22:13 3.2 °C 2 °C 1009.5 hPa West 1.4 km/h 3.2 km/h 92% 0.0 mm 0 W/m2
22:18 3.3 °C 2.1 °C 1009.5 hPa WSW 4.7 km/h 4.8 km/h 92% 0.0 mm 0 W/m2
22:23 3.4 °C 2.2 °C 1009.5 hPa SW 1.4 km/h 8 km/h 92% 0.0 mm 0 W/m2
22:28 3.5 °C 2.2 °C 1009.8 hPa West 6.4 km/h 6.4 km/h 91% 0.0 mm 0 W/m2
22:33 3.6 °C 2.1 °C 1009.8 hPa West 3.2 km/h 9.7 km/h 90% 0.0 mm 0 W/m2
22:38 3.7 °C 2.1 °C 1009.8 hPa West 6.4 km/h 6.4 km/h 89% 0.0 mm 0 W/m2
22:43 3.7 °C 2.1 °C 1009.8 hPa WSW 3.2 km/h 14.5 km/h 89% 0.0 mm 0 W/m2
22:48 3.6 °C 2 °C 1009.8 hPa WNW 4.7 km/h 11.3 km/h 89% 0.0 mm 0 W/m2
22:53 3.6 °C 2 °C 1009.8 hPa WSW 6.4 km/h 11.3 km/h 89% 0.0 mm 0 W/m2
22:58 3.7 °C 2.1 °C 1009.8 hPa WNW 6.4 km/h 16.1 km/h 89% 0.0 mm 0 W/m2
23:03 3.7 °C 2.1 °C 1009.8 hPa West 4.7 km/h 11.3 km/h 89% 0.0 mm 0 W/m2
23:08 3.7 °C 2.1 °C 1010.2 hPa West 11.1 km/h 14.5 km/h 89% 0.0 mm 0 W/m2
23:13 3.8 °C 2 °C 1010.2 hPa West 4.7 km/h 6.4 km/h 88% 0.0 mm 0 W/m2
23:19 3.7 °C 2.1 °C 1010.2 hPa Calm   14.5 km/h 89% 0.0 mm 0 W/m2
23:24 3.7 °C 2.1 °C 1010.2 hPa WNW 4.7 km/h 6.4 km/h 89% 0.0 mm 0 W/m2
23:29 3.6 °C 2 °C 1010.2 hPa WNW 3.2 km/h 6.4 km/h 89% 0.0 mm 0 W/m2
23:34 3.6 °C 2 °C 1010.2 hPa SSW 7.9 km/h 9.7 km/h 89% 0.0 mm 0 W/m2
23:39 3.6 °C 2 °C 1010.2 hPa West 1.4 km/h 4.8 km/h 89% 0.0 mm 0 W/m2
23:44 3.5 °C 1.9 °C 1010.2 hPa NW 1.4 km/h 3.2 km/h 89% 0.0 mm 0 W/m2
23:49 3.5 °C 1.9 °C 1010.2 hPa Calm   1.6 km/h 89% 0.0 mm 0 W/m2
23:54 3.4 °C 1.8 °C 1010.2 hPa WSW 3.2 km/h 4.8 km/h 89% 0.0 mm 0 W/m2
23:59 3.4 °C 1.9 °C 1010.2 hPa Calm   4.8 km/h 90% 0.0 mm 0 W/m2
Juneau County Weather
Compliments of Weather Underground - 4 mb